Location: Cathedral Gorge
(37.8167°N, 114.4167°W)
Time: 10:43:22
(UTC-07:00)

Hubble Space Telescope - Visible Passes

Search period start: 19 April 2018 00:00
Search period end: 29 April 2018 00:00
Orbit: 537 x 541 km, 28.5° (Epoch: 19 April)

Date Brightness Start Highest point End Pass type
(mag) Time Alt. Az. Time Alt. Az. Time Alt. Az.
19 Apr 3.3 04:01:47 10° SSE 04:01:47 10° SSE 04:01:55 10° SSE visible
26 Apr 2.9 19:52:17 10° S 19:53:34 11° SSE 19:54:50 10° SE visible
26 Apr 3.2 21:31:00 10° SW 21:31:23 12° SW 21:31:23 12° SW visible
27 Apr 2.8 21:20:30 10° SW 21:21:57 17° SSW 21:21:57 17° SSW visible
28 Apr 2.4 21:10:04 10° SW 21:12:27 21° SSW 21:12:27 21° SSW visible
